Presure
215 247 237 253 255 262 270 226 243 290 300 256 271 290 381 372 345 351 238 248 267 235 259 244 254 251 242
243 248 242 250 242 244 246 300 300 243 246 283 385 374 356 324 359 367 352 322 309 277 253 254 239 258 262
235 243 244 241 244 242 274 299 309 321 370 387 375 359 332 307 301 359 349 355 326 308 298 298 252 281 250
244 229 253 233 264 288 290 311 314 303 385 381 367 336 329 336 327 333 320 322 345 344 284 307 302 262 291
265 256 252 271 250 295 310 321 304 337 378 368 351 335 356 349 339 336 331 344 333 335 312 294 307 318 300
275 252 247 290 262 300 291 309 285 332 363 353 348 343 353 347 339 335 350 327 324 336 332 360 293 349 306
242 241 276 287 290 282 315 332 332 340 357 344 334 343 342 333 334 331 349 361 331 339 389 336 347 361 339
293 286 292 295 296 316 325 317 317 364 349 337 331 333 322 304 330 323 340 358 366 345 353 367 337 322 340
297 291 282 299 304 305 326 307 288 363 339 337 324 321 289 329 332 314 340 384 399 325 324 335 364 361 326
302 302 310 306 296 293 328 297 290 351 332 331 318 324 318 325 329 309 385 383 385 314 316 325 349 349 343
308 314 301 306 292 322 297 327 326 341 325 323 316 322 322 313 362 363 355 344 358 348 349 350 347 340 331
290 265 282 281 288 302 299 330 325 333 325 320 315 316 308 346 344 348 343 337 337 333 331 328 329 319 310
284 279 279 295 314 287 308 323 325 328 329 318 296 306 304 338 337 336 328 330 324 324 324 318 311 306 303
298 302 287 281 295 313 326 306 328 331 330 317 282 310 342 343 333 326 324 316 308 306 304 301 298 295 294
319 311 303 334 363 356 321 338 324 334 317 313 302 338 328 326 313 304 305 302 303 297 295 295 296 292 290
458 443 423 415 401 381 340 331 327 320 316 291 304 320 315 299 295 298 297 292 296 300 300 290 282 289 297
443 428 413 401 386 362 341 324 322 309 302 299 321 316 305 295 297 292 292 299 297 292 289 287 290 290 283
Wind_Speed
78 89 84 92 93 96 98 74 83 94 91 81 80 82 82 77 76 78 80 79 78 75 77 76 74 77 77
88 89 92 93 87 87 80 98 94 81 79 82 76 72 69 70 71 77 81 82 84 79 77 76 82 77 76
91 93 94 92 89 81 91 94 89 85 77 73 70 67 64 68 67 68 75 81 85 86 85 84 83 83 82
94 87 96 77 95 98 94 94 89 77 74 70 67 64 64 64 65 67 70 71 74 78 77 83 84 86 85
99 97 96 98 93 97 93 93 84 78 73 68 64 62 60 60 62 63 65 65 69 71 79 80 82 89 87
100 95 95 99 96 91 90 88 77 76 70 67 63 61 57 55 57 60 60 64 66 65 68 67 79 82 85
95 96 98 97 95 91 88 81 75 73 66 65 62 60 54 52 52 55 57 57 61 61 58 67 67 70 77
96 95 92 91 91 87 84 79 73 70 63 60 61 57 55 54 51 52 54 53 53 53 54 58 65 68 69
92 90 90 89 85 83 82 76 71 65 63 58 58 55 56 54 51 50 51 43 44 54 55 54 55 58 65
91 88 87 82 81 79 78 73 68 63 61 56 59 56 53 53 49 48 32 33 36 51 51 50 49 52 57
91 89 82 80 78 80 73 72 66 61 59 56 58 54 50 52 37 33 32 33 32 35 36 37 39 43 50
87 86 81 79 77 75 72 68 63 60 57 55 54 51 50 39 38 37 32 32 33 36 36 37 39 44 49
84 81 80 79 76 72 70 65 60 58 56 53 52 49 49 43 40 39 38 35 36 37 37 41 44 48 52
84 82 80 77 74 72 66 61 57 56 53 51 49 45 37 39 38 40 38 38 39 41 43 46 49 52 55
85 81 78 78 66 64 61 57 54 52 52 46 43 32 33 34 38 41 40 42 43 42 44 49 52 55 58
60 54 53 53 52 51 54 52 50 49 48 46 41 34 35 40 42 43 45 46 47 48 50 49 54 59 61
52 48 47 46 45 46 49 47 46 46 45 43 36 34 36 42 42 45 48 49 51 52 52 55 58 62 62
Wind_Direction
297 295 294 293 293 293 293 292 290 294 293 286 283 281 278 272 267 261 257 256 253 259 253 247 250 249 244
295 294 293 293 294 294 292 300 298 289 289 288 288 285 277 272 271 264 257 252 248 255 250 249 244 251 248
295 293 294 294 296 290 299 299 299 300 295 292 288 283 277 272 270 268 261 256 251 249 250 247 250 247 245
295 295 297 295 299 301 302 301 302 299 297 292 288 284 281 278 272 269 264 259 257 254 251 249 246 247 242
298 297 297 301 299 302 302 302 303 300 297 293 289 285 283 279 274 268 264 262 256 254 251 250 248 246 243
300 297 298 301 298 302 302 303 301 299 297 293 289 286 283 278 273 269 265 261 259 256 252 248 247 244 242
297 296 299 300 298 300 301 300 300 299 296 292 290 287 284 279 274 270 270 265 257 257 251 248 246 243 243
296 296 296 296 298 300 300 298 299 296 294 289 288 287 285 280 277 270 269 266 258 256 253 248 246 245 244
293 294 295 295 296 297 300 297 297 294 292 289 286 284 284 282 279 271 269 259 254 256 253 251 246 245 244
292 293 293 293 293 296 298 295 297 293 290 289 286 286 287 283 278 271 262 256 253 256 254 253 248 245 244
290 291 290 292 292 298 293 296 295 291 289 285 285 286 286 283 269 262 257 257 247 248 247 246 246 245 246
288 290 288 289 291 292 291 293 292 287 285 283 284 285 285 267 263 265 257 253 250 249 248 247 246 247 248
285 285 285 286 289 288 288 289 288 284 282 282 283 285 283 264 261 257 257 251 250 250 246 247 248 248 248
282 283 281 283 284 284 285 285 282 279 279 279 284 281 261 260 256 256 255 256 252 251 252 251 250 250 251
281 279 279 281 278 279 280 278 278 277 278 279 281 259 256 255 259 264 263 262 262 261 260 260 259 258 257
267 262 260 262 265 266 272 272 274 275 276 280 279 261 260 264 266 268 268 269 270 271 269 263 261 261 262
259 256 254 254 256 260 264 269 270 273 274 278 267 258 259 264 267 268 273 276 277 276 272 269 271 267 261